sat.trackr.live / text

‹ back to catalog

ONEWEB-0407

NORAD 50487 · 2021-132U

PAYLOAD ACTIVE UNKNOWN

§ Identity

Operator
Country
UK
Launch date
2021-12-27
Launch site
TYMSC
Launch vehicle
Mass (kg)
RCS (m²)

Purposes: comms

External: N2YO · Heavens-Above · Gunter

§ Orbital elements

Epoch: 2026-09-19T21:16:26.096160Z

Period
109.20 min
Inclination
87.9165°
Eccentricity
0.0001892
Mean motion
13.18687074 rev/d
Perigee alt
1,188.3 km
Apogee alt
1,191.2 km
Semi-major
7,567.9 km
B*
-2.2049e-4
RAAN
316.6365°
Arg perigee
91.0492°
Mean anomaly
269.0857°
Rev number
23,404

§ Raw data

ONEWEB-04071 50487U 21132U   26262.88641315 -.00000074  00000+0 -22049-3 0  99992 50487  87.9165 316.6365 0001892  91.0492 269.0857 13.18687074234042

JSON: /api/v1/satellites/50487 · /tle

For live sub-satellite position, see the globe view (requires WebGL).

§ Visibility from observer

Set your observer location to see the next 7 days of passes ≥ 10°. The values pass through the URL so the page stays shareable.

No JS? Fill the form by hand. The geolocation button needs JavaScript.